Location: Nakusp
(50.2330°N, 117.8000°W)
Time: 07:51:37
(UTC-07:00)

Daily predictions for brighter satellites

Satellite Brightness Start Highest point End
(mag) Time Altitude Azimuth Time Altitude Azimuth Time Altitude Azimuth
NOAA 11 4.3 21:44:54 10° SSE 21:50:17 68° ENE 21:55:44 10° N
H-2A R/B 3.7 21:46:11 10° SSW 21:50:21 35° W 21:54:31 10° NNW
Cosmos 2112 Rocket 4.5 21:46:55 10° NNW 21:52:04 60° WSW 21:57:14 10° S
Aureole 3 4.3 21:48:01 10° S 21:54:29 78° E 21:59:34 10° NNE
MetOp-B 4.5 21:49:15 10° S 21:54:35 70° WSW 21:59:58 10° NNW
Cosmos 1674 3.4 21:51:46 10° SSW 21:55:33 59° WNW 21:59:25 10° N
Cosmos 1666 Rocket 4.0 21:51:50 10° SSE 21:56:00 44° E 22:00:14 10° NNE
ATLAS 2AS CENTAUR R/B 4.3 21:52:10 10° SE 21:56:50 18° ESE 22:01:40 10° ENE
Cosmos 1626 4.2 21:56:05 10° ESE 21:58:00 14° E 21:59:56 10° NE
Cosmos 1300 2.7 21:58:36 10° N 22:02:29 85° W 22:06:19 10° S
IGS 5A 4.5 21:58:43 10° SE 22:02:30 34° ENE 22:06:18 10° N
Cosmos 2298 Rocket 4.5 21:57:42 10° S 22:02:42 43° ESE 22:07:43 10° NE
Cosmos 292 Rocket 3.9 22:00:26 10° NNW 22:05:14 70° ENE 22:09:58 10° SSE
Cosmos 1937 Rocket 4.4 22:01:11 10° SSE 22:05:39 29° E 22:10:06 10° NE
Landsat 7 4.0 22:01:52 10° SSE 22:06:34 61° ENE 22:11:16 10° N
Meteor 1-11 4.4 22:01:20 10° S 22:07:02 64° E 22:12:42 10° NNE
ATLAS 3B R/B 3.5 22:02:25 10° NW 22:09:27 50° NE 22:16:01 10° ESE
Cosmos 2227 Rocket 3.5 22:09:03 10° SSE 22:13:20 22° ESE 22:17:37 10° NE
Cosmos 1745 Rocket 4.4 22:07:40 10° SSE 22:13:31 45° E 22:19:21 10° NNE
YAOGAN 6 3.6 22:11:06 10° S 22:14:35 43° W 22:18:03 10° NNW
Cosmos 2333 Rocket 2.4 22:14:04 10° NNW 22:19:50 69° ENE 22:25:14 12° SE
NOSS 3-1 (C) 3.6 22:14:35 10° SSW 22:20:21 54° ESE 22:26:49 10° NE
SL-16 R/B 3.3 22:16:47 10° NNW 22:22:00 35° NE 22:27:12 10° ESE
Terra 2.0 22:17:55 11° SSE 22:22:25 62° ENE 22:27:08 10° N
Spot 4 4.3 22:18:40 11° SE 22:23:06 51° ENE 22:27:50 10° N
H-2A R/B 2.2 22:19:46 11° SSE 22:25:00 74° ENE 22:30:28 10° NNW
Cosmos 1455 2.8 22:21:31 10° N 22:25:10 42° ENE 22:28:13 14° SE
NOSS 0 Rocket 4.0 22:21:29 10° NNW 22:27:41 88° ENE 22:33:18 13° SSE
ATLAS 5 CENTAUR R/B 4.5 22:24:52 10° WNW 22:29:15 27° NNW 22:33:58 10° NE
CZ-4B R/B 3.8 22:24:04 10° NNE 22:29:22 78° WNW 22:34:36 10° SSW
CZ-4C R/B 4.3 22:25:08 10° NW 22:30:52 32° NNE 22:37:15 10° E
COSMOS 2428 3.5 22:26:01 10° NW 22:31:25 45° WSW 22:36:47 10° S
Cosmos 1869 3.9 22:30:32 10° N 22:34:28 46° ENE 22:37:35 15° SE
Cosmos 2242 Rocket 3.8 22:30:17 10° NNW 22:34:45 71° W 22:39:10 10° S
CZ-4 R/B 4.0 22:32:12 10° NNE 22:37:13 86° WNW 22:42:05 10° SSW
Cosmos 2297 Rocket 3.3 22:36:45 14° SSE 22:40:27 26° ESE 22:45:01 10° NE
CZ-4C R/B 3.5 22:38:19 12° S 22:41:30 53° W 22:44:56 10° NNW
SAR-Lupe-2 3.5 22:40:27 16° SSE 22:43:16 83° ENE 22:46:53 10° NNW
Cosmos 2219 Rocket 2.4 22:37:51 10° NNW 22:43:25 68° WSW 22:48:13 14° SSE
Cosmos 1862 Rocket 3.5 22:41:36 10° N 22:45:59 74° E 22:49:24 16° SSE
BREEZE-M DEB (TANK) 2.5 22:44:47 10° W 22:46:41 35° SSW 22:48:16 18° SE
Cosmos 1898 Rocket 3.5 22:41:50 10° SSW 22:47:01 83° ESE 22:52:17 10° NNE
ARGOS 4.1 22:42:08 10° S 22:47:16 43° W 22:52:24 10° NNW
Cosmos 1726 3.6 22:45:04 10° NNW 22:48:30 33° W 22:51:54 10° SSW
Cosmos 2150 Rocket 4.1 22:46:21 10° SSW 22:51:49 90° WNW 22:57:20 10° NNE
CARTOSAT-1 3.8 22:48:24 14° S 22:52:06 69° WSW 22:56:26 10° NNW
Cosmos 858 Rocket 4.5 22:48:09 10° SSW 22:53:22 85° ESE 22:58:37 10° NNE
Sich 1 3.7 22:49:38 10° SSW 22:54:00 57° WNW 22:58:21 10° N
USA 234 4.2 22:49:07 10° ENE 22:55:23 50° N 23:01:38 10° WNW
Cosmos 1633 Rocket 3.6 22:52:09 10° SSW 22:56:28 57° WNW 23:00:47 10° N
SeaSat 1 3.1 22:52:14 13° SE 22:56:30 50° NE 23:01:17 10° NNW
Lacrosse 4 Rocket 2.2 22:53:04 10° NNW 22:57:22 49° NE 23:00:59 14° ESE
FALCON 9 R/B 4.2 22:37:07 10° WSW 22:57:29 35° SSW 23:03:14 15° SE
Cosmos 1271 Rocket 3.9 22:55:07 10° NNW 22:58:41 38° W 23:02:06 11° SSW
Cosmos 192 4.3 22:55:18 10° NNW 23:00:15 90° SSW 23:03:55 18° SSE
Cosmos 1980 3.9 22:55:11 10° NNW 23:00:49 68° WSW 23:05:12 17° SSE
DMSP B5D2-2 4.0 22:59:26 10° NNE 23:04:42 80° ESE 23:09:39 11° SSW
Cosmos 1703 3.7 23:00:58 10° SSW 23:04:50 62° WNW 23:08:44 10° N
Cosmos 2219 4.2 23:04:27 10° SW 23:10:03 51° NW 23:15:40 10° NNE
Cosmos 2237 Rocket 2.5 23:08:01 10° NW 23:13:38 60° WSW 23:17:50 18° S
Cosmos 1869 Rocket 4.5 23:16:19 20° SE 23:18:45 36° E 23:22:51 10° NNE
ERBS 3.3 23:18:46 26° SSE 23:19:28 28° SE 23:22:30 10° ENE
CZ-4C R/B 4.4 23:19:00 17° ESE 23:21:00 29° ENE 23:24:10 10° N
Cosmos 2082 3.7 23:16:22 11° SSW 23:21:49 67° ESE 23:27:30 10° NNE
NOSS 3-1 (A) 3.6 23:17:44 10° SW 23:23:48 86° NW 23:30:40 10° NE
H-2A R/B 4.2 23:21:48 10° NE 23:24:52 19° E 23:26:29 16° ESE
COSMOS 2455 2.9 23:22:20 10° NW 23:28:24 81° WSW 23:32:41 20° SSE
ALOS 2 3.7 23:25:46 17° SE 23:28:38 36° ENE 23:32:39 10° N
Cosmos 1933 3.3 23:26:04 10° N 23:30:10 88° W 23:32:31 24° S
COS B Rocket 3.3 23:27:24 10° N 23:31:03 63° E 23:33:11 25° SSE
Cosmos 1626 2.7 23:30:01 15° SSW 23:32:59 55° WNW 23:36:42 10° N
Cosmos 1241 Rocket 4.4 23:29:29 10° SSW 23:35:40 75° SE 23:41:58 10° NE
Okean 1-7 3.0 23:39:15 10° N 23:43:34 75° E 23:45:52 26° SSE
BREEZE-M DEB (TANK) 3.4 23:45:34 20° ESE 23:45:34 20° ESE 23:47:41 10° E
ATLAS 2AS CENTAUR R/B 3.0 23:38:52 10° SSW 23:46:24 67° SE 23:54:27 10° NE
Cosmos 1703 Rocket 3.7 23:42:28 10° NNW 23:46:48 67° W 23:49:21 24° S
Cosmos 1937 Rocket 4.4 23:42:22 10° SW 23:47:25 47° WNW 23:52:28 10° NNE
Cosmos 2221 Rocket 3.9 23:47:59 10° NNW 23:52:31 63° W 23:55:11 24° S
